Location: Cathedral Gorge
(37.8167°N, 114.4167°W)
Time: 08:20:58
(UTC-08:00)

Tiangong 2 - Visible Passes

Search period start: 22 February 2018 00:00
Search period end: 04 March 2018 00:00
Orbit: 384 x 388 km, 42.8° (Epoch: 22 February)

Date Brightness Start Highest point End Pass type
(mag) Time Alt. Az. Time Alt. Az. Time Alt. Az.
22 Feb 1.4 18:08:25 10° WNW 18:11:35 65° SSW 18:14:34 11° SE visible
23 Feb 3.5 18:46:48 10° W 18:49:07 19° SW 18:51:14 11° S visible
24 Feb 2.7 17:47:21 10° W 17:50:17 34° SSW 17:53:12 10° SE visible
